Flag for Germany Weather past 2 weeks in Hürth, North Rhine-Westphalia, Germany

Now
68 °F

Passing clouds.


Feels Like: 68 °F
Forecast: 73 / 97 °F
Wind: 3 mph from West

Location: Noervenich

Current Time: Jul 3, 2015 at 8:18:32 AM

Latest Report: Jul 3, 2015 at 7:20 AM


Visibility: N/A

Pressure: 30.24 "Hg

Humidity: 88%

Dew point: 64 °F

Location of HürthLocation

Historic Weather in Hürth — Graph

°F

Hürth temperature yesterday

Maximum temperature yesterday: 99 °F (at 4:20 PM)
Minimum temperature yesterday: 72 °F (at 3:20 AM)
Average temperature yesterday: 84 °F

Past Weeks' High & Low Weather Summary

 TemperatureHumidityPressure
High99 °F (Jul 2, 4:20 PM)100% (Jun 22, 11:20 PM)30.24 "Hg (Jun 22, 11:20 PM)
Low48 °F (Jun 22, 11:20 PM)25% (Jun 30, 6:20 PM)29.68 "Hg (Jun 22, 8:20 PM)
Average65 °F67%30.07 "Hg
* Reported Jun 18 6:20 AM — Jul 3 6:20 AM, Hürth, Weather by CustomWeather, © 2015

Note: Actual official high and low records may vary slightly from our data, if they occured in-between our weather recording intervals... More about our weather records

Advertising

Hürth weather history for previous 24 hours

 ConditionsComfort  
Time TempWeatherWind HumidityBarometerVisibility
6:20 AM
Fri, Jul 3
68 °FPassing clouds.2 mph88%30.24 "HgN/A
5:20 AM68 °FPassing clouds.6 mph88%30.24 "HgN/A
4:20 AM68 °FPassing clouds.7 mph83%30.21 "HgN/A
3:20 AM70 °FPassing clouds.7 mph78%30.21 "HgN/A
2:20 AM72 °FPassing clouds.5 mph73%30.18 "HgN/A
1:20 AM73 °FPassing clouds.5 mph74%30.18 "HgN/A
12:20 AM75 °FPassing clouds.7 mph74%30.15 "HgN/A
11:20 PM
Thu, Jul 2
77 °FPassing clouds.10 mph69%30.12 "HgN/A
10:20 PM79 °FScattered clouds.7 mph65%30.09 "HgN/A
9:20 PM81 °FScattered clouds.9 mph70%30.07 "HgN/A
8:20 PM91 °FScattered clouds.5 mph41%30.04 "HgN/A
7:20 PM95 °FScattered clouds.5 mph36%30.04 "HgN/A
6:20 PM95 °FScattered clouds.8 mph39%30.04 "HgN/A
5:20 PM97 °FPassing clouds.6 mph37%30.04 "HgN/A
5:00 PM97 °FPassing clouds.7 mph37%30.04 "HgN/A
4:20 PM99 °FPassing clouds.5 mph35%30.04 "HgN/A
3:20 PM97 °FPassing clouds.7 mph37%30.04 "HgN/A
2:20 PM97 °FPassing clouds.6 mph37%30.04 "HgN/A
1:20 PM95 °FPassing clouds.6 mph39%30.04 "HgN/A
12:20 PM91 °FHot.6 mph44%30.04 "HgN/A
11:20 AM90 °FHot.3 mph46%30.07 "HgN/A
10:20 AM86 °FWarm.3 mph49%30.07 "HgN/A
9:20 AM82 °FWarm.5 mph55%30.07 "HgN/A
8:20 AM79 °FWarm.3 mph58%30.07 "HgN/A
Weather by CustomWeather, © 2015

See weather overviewHow to use our weather pages